Regional Weather Roundup
Issued by NWS

Home | Current Version | Previous Version | Graphics & Text | Print | Product List | Glossary On
Versions: 1 2 3 4 5 6 7 8 9 10 11 12 13 14 15 16 17 18 19 20 21 22 23 24 25 26 27 28 29 30 31 32 33 34 35 36 37 38 39 40 41 42 43 44 45 46 47 48 49 50
000
ASUS43 KLOT 280910
RWRIL

ILLINOIS REGIONAL WEATHER ROUNDUP
NATIONAL WEATHER SERVICE CHICAGO/ROMEOVILLE IL
300 AM CST SAT FEB 28 2015

NOTE: "FAIR" INDICATES FEW OR NO CLOUDS BELOW 12,000 FEET WITH NO
SIGNIFICANT WEATHER AND/OR OBSTRUCTIONS TO VISIBILITY.

* THESE STATIONS ARE NOT UNDER NWS QUALITY CONTROL. THEY ALSO MAY NOT
  REPORT WEATHER SUCH AS PRECIPITATION OR FOG.

ILZ001-002-007-009-015-016-024-281000-
NORTHWEST ILLINOIS

CITY           SKY/WX    TMP DP  RH WIND       PRES   REMARKS
MOLINE         PTCLDY   -17 -23  73 CALM      30.66F
STERLING*      PTCLDY   -17 -17 100 CALM      30.65S
SAVANNA*       PTCLDY   -16 -22  74 CALM      30.66F
$$

ILZ003-004-008-010-011-017-018-281000-
NORTH CENTRAL ILLINOIS

CITY           SKY/WX    TMP DP  RH WIND       PRES   REMARKS
ROCKFORD       MOCLDY   -13 -19  75 CALM      30.66F
FREEPORT*      PTCLDY   -13 -17  82 CALM      30.66S
ROCHELLE*      PTCLDY   -20 -25  76 SE3       30.65F
DE KALB*       PTCLDY    -7 -12  80 SW3       30.64F
PERU*          PTCLDY    -6 -10  80 E3        30.67S
$$

ILZ005-006-012>014-019>023-281000-
NORTHEAST ILLINOIS

CITY           SKY/WX    TMP DP  RH WIND       PRES   REMARKS
CHICAGO-OHARE  PTCLDY    -4 -10  75 CALM      30.65F
CHICAGO-MIDWAY PTCLDY     3  -5  69 CALM      30.67F
AURORA         PTCLDY   -14 -20  74 CALM      30.66F
LANSING*       PTCLDY    -9 -14  78 CALM      30.68F
JOLIET*        PTCLDY   -10 -14  81 CALM      30.68F
WAUKEGAN       PTCLDY    -2  -7  79 W3        30.64F
DUPAGE AIRPORT PTCLDY    -8 -13  78 CALM      30.64F
KANKAKEE*      PTCLDY    -2  -6  83 CALM      30.68F
WHEELING       PTCLDY    -7 -13  75 CALM      30.68F
MORRIS*        CLEAR     -9 -12  85 CALM      30.67S
ROMEOVILLE*    PTCLDY    -2  -6  80 CALM      30.66F
NORTHERLY ISL    N/A      7  -2  66 W6          N/A  WCI  -3
$$

LMZ740>746-281000-
SOUTHERN LAKE MICHIGAN

STATION/POSITION SKY/WX   TEMP    WIND        PRES    VSBY  WAVE
                          AIR SEA DIR/SP/G                  HT/PER
                          (F)     (DEG/KT/KT) (MB)    (MI)  (FT/S)
WAUKEGAN HARBOR             3     260/  8/ 10   N/A
HARRISON CRIB               8     280/  7/  9   N/A
BURNHAM HARBOR              8     270/  3/  7   N/A
CALUMET HARBOR              4     180/  2/  3 1037.3F
MICHIGAN CITY               2     150/  4/  5   N/A
$$

ILZ025>027-034>036-040-047-049-050-058-095>099-281000-
WEST-CENTRAL ILLINOIS

CITY           SKY/WX    TMP DP  RH WIND       PRES   REMARKS
QUINCY         CLOUDY     6  -4  63 E6        30.61F WCI  -4
GALESBURG*     PTCLDY    -5  -9  83 E3        30.63F
MACOMB*        PTCLDY    -5  -9  84 CALM      30.66F
JACKSONVILLE*  PTCLDY     6  -1  73 E3        30.64F
PITTSFIELD*    PTCLDY    10   2  72 CALM      30.63F
$$

ILZ028>032-037-038-041>044-048-051>054-059>061-281000-
CENTRAL ILLINOIS

CITY           SKY/WX    TMP DP  RH WIND       PRES   REMARKS
PONTIAC        PTCLDY    -4  -8  84 SE3       30.68S
BLOOMINGTON    PTCLDY     4  -2  76 CALM      30.65S
DECATUR        MOCLDY     4  -3  73 E3        30.65F
PEORIA         CLOUDY     4  -2  76 CALM      30.66F
LACON*         PTCLDY    -7 -11  82 CALM      30.67S
LINCOLN*       CLOUDY    10   4  78 CALM      30.69F
SPRINGFIELD    CLOUDY     7   0  73 E6        30.65F WCI  -3
TAYLORVILLE    MOCLDY     9   1  72 E6        30.65S WCI  -1
$$

ILZ033-039-045-046-055>057-062-063-281000-
EAST-CENTRAL ILLINOIS

CITY           SKY/WX    TMP DP  RH WIND       PRES   REMARKS
CHAMPAIGN      MOCLDY     6  -1  73 NE7       30.65S WCI  -6
DANVILLE*      PTCLDY     4  -2  74 E5        30.64S WCI  -5
RANTOUL*       MOCLDY     8   1  72 E3        30.66S
MATTOON        MOCLDY     6  -1  73 CALM      30.64F
PARIS*         PTCLDY     2  -2  82 CALM      30.67S
$$

ILZ079-100>102-281000-
SOUTHWEST ILLINOIS

CITY           SKY/WX    TMP DP  RH WIND       PRES   REMARKS
ALTON          CLOUDY    12   0  57 E7        30.65F WCI   1
BELLEVILLE     CLOUDY    15   5  67 E6        30.64F WCI   6
CAHOKIA*       CLOUDY    16   5  62 E5        30.65F WCI   9
SPARTA*        CLOUDY    16   7  66 NE6       30.64F WCI   8
$$

ILZ064>066-069>071-074>076-080>082-084>086-088>090-092>094-281000-
SOUTH-CENTRAL ILLINOIS

CITY           SKY/WX    TMP DP  RH WIND       PRES   REMARKS
CARBONDALE     CLOUDY    18   7  62 NE8       30.63S WCI   8
CAIRO*         CLOUDY    22  13  67 NE9       30.61R WCI  12
EFFINGHAM*     PTCLDY    10  -2  59 NE5       30.67F WCI   1
MARION         CLOUDY    19   9  63 N7        30.63S WCI  10
MT. VERNON     CLOUDY    14   1  57 NE6       30.64S WCI   5
CENTRALIA*     CLOUDY    13   2  61 NE6       30.64F WCI   4
SALEM*         CLOUDY    14   2  58 NE5       30.65S WCI   7
METROPOLIS*    PTCLDY    20  12  71 NE3       30.59F
$$

ILZ067-068-072-073-078-083-087-091-281000-
SOUTHEAST ILLINOIS

CITY           SKY/WX    TMP DP  RH WIND       PRES   REMARKS
LAWRENCEVILLE  CLOUDY    12   2  64 NE8       30.67S WCI   0
FLORA*         CLOUDY    11   1  65 NE6       30.65F WCI   1
FAIRFIELD*     CLOUDY    14   4  65 N5        30.64S WCI   6
HARRISBURG*    CLOUDY    17   9  70 NE7       30.65S WCI   8
ROBINSON*      CLOUDY    10   3  73 N5        30.68F WCI   2
CARMI*         PTCLDY    19  12  74 N7        30.64R WCI  10
$$

ABBREVIATIONS USED IN REMARKS
   TC - TEMPERATURE IN CELSIUS
  WCI - WIND CHILL INDEX
   HX - HEAT INDEX
  VSB - VISIBILITY
$$




USA.gov is the U.S. government's official web portal to all federal, state and local government web resources and services.